Time,TemperatureF,DewpointF,PressureIn,WindDirection,WindDirectionDegrees,WindSpeedMPH,WindSpeedGustMPH,Humidity,HourlyPrecipIn,Conditions,Clouds,dailyrainin,SoftwareType,DateUTC
2013-02-20 00:02:00,30.0,26.0,26.78,West,270,0.0,2.0,85,0.00,,,0.00,Rainwise IP-100,2013-02-20 07:02:00,
2013-02-20 00:07:00,30.0,26.0,26.78,West,270,0.0,0.0,85,0.00,,,0.00,Rainwise IP-100,2013-02-20 07:07:00,
2013-02-20 00:12:00,30.0,26.0,26.78,West,270,0.0,0.0,85,0.00,,,0.00,Rainwise IP-100,2013-02-20 07:12:00,
2013-02-20 00:17:00,30.0,28.0,26.78,West,270,0.0,0.0,86,0.00,,,0.00,Rainwise IP-100,2013-02-20 07:17:00,
2013-02-20 00:22:00,30.0,28.0,26.78,West,270,0.0,0.0,86,0.00,,,0.00,Rainwise IP-100,2013-02-20 07:22:00,
2013-02-20 00:27:00,30.0,28.0,26.78,South,180,1.0,3.0,86,0.00,,,0.00,Rainwise IP-100,2013-02-20 07:27:00,
2013-02-20 00:32:00,30.0,28.0,26.78,South,180,0.0,2.0,86,0.00,,,0.00,Rainwise IP-100,2013-02-20 07:32:00,
2013-02-20 00:37:00,30.0,28.0,26.79,South,180,0.0,0.0,86,0.00,,,0.00,Rainwise IP-100,2013-02-20 07:37:00,
2013-02-20 00:42:00,30.0,28.0,26.79,South,180,0.0,0.0,87,0.00,,,0.00,Rainwise IP-100,2013-02-20 07:42:00,
2013-02-20 00:43:00,30.0,28.0,26.79,South,180,0.0,0.0,87,0.00,,,0.00,Rainwise IP-100,2013-02-20 07:43:00,
2013-02-20 00:48:00,30.0,28.0,26.79,South,180,2.0,2.0,87,0.00,,,0.00,Rainwise IP-100,2013-02-20 07:48:00,
2013-02-20 00:53:00,30.0,28.0,26.79,South,180,0.0,2.0,87,0.00,,,0.00,Rainwise IP-100,2013-02-20 07:53:00,
2013-02-20 00:58:00,30.0,28.0,26.79,South,180,0.0,0.0,87,0.00,,,0.00,Rainwise IP-100,2013-02-20 07:58:00,
2013-02-20 01:05:00,30.0,28.0,26.79,South,180,0.0,3.0,87,0.00,,,0.00,Rainwise IP-100,2013-02-20 08:05:00,
2013-02-20 01:10:00,30.0,28.0,26.79,South,180,0.0,0.0,86,0.00,,,0.00,Rainwise IP-100,2013-02-20 08:10:00,
2013-02-20 01:15:00,30.0,28.0,26.79,South,180,0.0,0.0,86,0.00,,,0.00,Rainwise IP-100,2013-02-20 08:15:00,
2013-02-20 01:20:00,30.0,28.0,26.79,South,180,0.0,0.0,86,0.00,,,0.00,Rainwise IP-100,2013-02-20 08:20:00,
2013-02-20 01:25:00,30.0,26.0,26.79,South,180,0.0,0.0,85,0.00,,,0.00,Rainwise IP-100,2013-02-20 08:25:00,
2013-02-20 01:30:00,30.0,28.0,26.79,South,180,0.0,0.0,87,0.00,,,0.00,Rainwise IP-100,2013-02-20 08:30:00,
2013-02-20 01:35:00,30.0,28.0,26.80,South,180,0.0,0.0,86,0.00,,,0.00,Rainwise IP-100,2013-02-20 08:35:00,
2013-02-20 01:40:00,30.0,28.0,26.80,WSW,247,0.0,3.0,87,0.00,,,0.00,Rainwise IP-100,2013-02-20 08:40:00,
2013-02-20 01:45:00,30.0,28.0,26.80,WSW,247,0.0,0.0,86,0.00,,,0.00,Rainwise IP-100,2013-02-20 08:45:00,
2013-02-20 01:50:00,29.0,26.0,26.80,WSW,247,0.0,0.0,87,0.00,,,0.00,Rainwise IP-100,2013-02-20 08:50:00,
2013-02-20 01:55:00,30.0,28.0,26.80,NNW,337,0.0,0.0,87,0.00,,,0.00,Rainwise IP-100,2013-02-20 08:55:00,
2013-02-20 02:00:00,29.0,26.0,26.80,East,90,0.0,2.0,88,0.00,,,0.00,Rainwise IP-100,2013-02-20 09:00:00,
2013-02-20 02:05:00,30.0,28.0,26.80,East,90,0.0,0.0,87,0.00,,,0.00,Rainwise IP-100,2013-02-20 09:05:00,
2013-02-20 02:10:00,29.0,26.0,26.80,East,90,0.0,0.0,88,0.00,,,0.00,Rainwise IP-100,2013-02-20 09:10:00,
2013-02-20 02:15:00,30.0,28.0,26.80,East,90,0.0,1.0,87,0.00,,,0.00,Rainwise IP-100,2013-02-20 09:15:00,
2013-02-20 02:20:00,30.0,28.0,26.80,East,90,0.0,1.0,87,0.00,,,0.00,Rainwise IP-100,2013-02-20 09:20:00,
2013-02-20 02:25:00,30.0,28.0,26.80,East,90,0.0,0.0,86,0.00,,,0.00,Rainwise IP-100,2013-02-20 09:25:00,
2013-02-20 02:30:00,30.0,28.0,26.80,East,90,1.0,2.0,87,0.00,,,0.00,Rainwise IP-100,2013-02-20 09:30:00,
2013-02-20 02:35:00,30.0,28.0,26.80,East,90,0.0,2.0,87,0.00,,,0.00,Rainwise IP-100,2013-02-20 09:35:00,
2013-02-20 02:40:00,30.0,28.0,26.80,East,90,0.0,1.0,87,0.00,,,0.00,Rainwise IP-100,2013-02-20 09:40:00,
2013-02-20 02:45:00,30.0,28.0,26.81,East,90,0.0,0.0,86,0.00,,,0.00,Rainwise IP-100,2013-02-20 09:45:00,
2013-02-20 02:50:00,30.0,28.0,26.81,East,90,0.0,0.0,87,0.00,,,0.00,Rainwise IP-100,2013-02-20 09:50:00,
2013-02-20 02:55:00,30.0,28.0,26.80,East,90,0.0,0.0,86,0.00,,,0.00,Rainwise IP-100,2013-02-20 09:55:00,
2013-02-20 03:00:00,30.0,28.0,26.80,East,90,0.0,0.0,87,0.00,,,0.00,Rainwise IP-100,2013-02-20 10:00:00,
2013-02-20 03:05:00,30.0,28.0,26.81,East,90,0.0,0.0,87,0.00,,,0.00,Rainwise IP-100,2013-02-20 10:05:00,
2013-02-20 03:10:00,29.0,26.0,26.81,East,90,0.0,0.0,88,0.00,,,0.00,Rainwise IP-100,2013-02-20 10:10:00,
2013-02-20 03:15:00,29.0,26.0,26.81,East,90,0.0,0.0,88,0.00,,,0.00,Rainwise IP-100,2013-02-20 10:15:00,
2013-02-20 03:20:00,29.0,26.0,26.81,East,90,0.0,0.0,88,0.00,,,0.00,Rainwise IP-100,2013-02-20 10:20:00,
2013-02-20 03:25:00,29.0,26.0,26.81,East,90,0.0,0.0,88,0.00,,,0.00,Rainwise IP-100,2013-02-20 10:25:00,
2013-02-20 03:30:00,29.0,26.0,26.81,East,90,0.0,0.0,89,0.00,,,0.00,Rainwise IP-100,2013-02-20 10:30:00,
2013-02-20 03:35:00,29.0,26.0,26.81,East,90,0.0,0.0,89,0.00,,,0.00,Rainwise IP-100,2013-02-20 10:35:00,
2013-02-20 03:40:00,29.0,26.0,26.81,East,90,0.0,0.0,89,0.00,,,0.00,Rainwise IP-100,2013-02-20 10:40:00,
2013-02-20 03:45:00,29.0,26.0,26.82,East,90,0.0,0.0,89,0.00,,,0.00,Rainwise IP-100,2013-02-20 10:45:00,
2013-02-20 03:50:00,29.0,26.0,26.82,East,90,0.0,0.0,90,0.00,,,0.00,Rainwise IP-100,2013-02-20 10:50:00,
2013-02-20 03:55:00,29.0,26.0,26.82,East,90,0.0,0.0,89,0.00,,,0.00,Rainwise IP-100,2013-02-20 10:55:00,
2013-02-20 04:00:00,29.0,26.0,26.82,East,90,0.0,0.0,90,0.00,,,0.00,Rainwise IP-100,2013-02-20 11:00:00,
2013-02-20 04:05:00,29.0,26.0,26.82,East,90,0.0,0.0,90,0.00,,,0.00,Rainwise IP-100,2013-02-20 11:05:00,
2013-02-20 04:10:00,29.0,26.0,26.82,East,90,0.0,0.0,90,0.00,,,0.00,Rainwise IP-100,2013-02-20 11:10:00,
2013-02-20 04:15:00,29.0,26.0,26.83,East,90,0.0,0.0,90,0.00,,,0.00,Rainwise IP-100,2013-02-20 11:15:00,
2013-02-20 04:20:00,29.0,28.0,26.83,East,90,0.0,0.0,91,0.00,,,0.00,Rainwise IP-100,2013-02-20 11:20:00,
2013-02-20 04:25:00,29.0,26.0,26.83,East,90,0.0,0.0,90,0.00,,,0.00,Rainwise IP-100,2013-02-20 11:25:00,
2013-02-20 04:30:00,29.0,26.0,26.83,East,90,0.0,0.0,90,0.00,,,0.00,Rainwise IP-100,2013-02-20 11:30:00,
2013-02-20 04:35:00,29.0,26.0,26.83,East,90,0.0,0.0,90,0.00,,,0.00,Rainwise IP-100,2013-02-20 11:35:00,
2013-02-20 04:40:00,29.0,26.0,26.83,East,90,0.0,0.0,90,0.00,,,0.00,Rainwise IP-100,2013-02-20 11:40:00,
2013-02-20 04:45:00,30.0,28.0,26.83,East,90,0.0,0.0,88,0.00,,,0.00,Rainwise IP-100,2013-02-20 11:45:00,
2013-02-20 04:50:00,30.0,28.0,26.83,East,90,0.0,0.0,88,0.00,,,0.00,Rainwise IP-100,2013-02-20 11:50:00,
2013-02-20 04:55:00,30.0,28.0,26.83,East,90,0.0,0.0,88,0.00,,,0.00,Rainwise IP-100,2013-02-20 11:55:00,
2013-02-20 05:00:00,30.0,28.0,26.83,East,90,0.0,0.0,90,0.00,,,0.00,Rainwise IP-100,2013-02-20 12:00:00,
2013-02-20 05:05:00,30.0,28.0,26.83,East,90,0.0,0.0,90,0.00,,,0.00,Rainwise IP-100,2013-02-20 12:05:00,
2013-02-20 05:10:00,29.0,28.0,26.83,East,90,0.0,0.0,92,0.00,,,0.00,Rainwise IP-100,2013-02-20 12:10:00,
2013-02-20 05:15:00,29.0,28.0,26.84,East,90,0.0,0.0,91,0.00,,,0.00,Rainwise IP-100,2013-02-20 12:15:00,
2013-02-20 05:20:00,29.0,28.0,26.84,East,90,0.0,0.0,92,0.00,,,0.00,Rainwise IP-100,2013-02-20 12:20:00,
2013-02-20 05:25:00,29.0,28.0,26.84,East,90,0.0,0.0,92,0.00,,,0.00,Rainwise IP-100,2013-02-20 12:25:00,
2013-02-20 05:30:00,29.0,28.0,26.84,East,90,0.0,0.0,93,0.00,,,0.00,Rainwise IP-100,2013-02-20 12:30:00,
2013-02-20 05:35:00,29.0,28.0,26.84,SSE,157,2.0,3.0,94,0.00,,,0.00,Rainwise IP-100,2013-02-20 12:35:00,
2013-02-20 05:40:00,29.0,29.0,26.84,SSE,157,2.0,4.0,98,0.00,,,0.00,Rainwise IP-100,2013-02-20 12:40:00,
2013-02-20 05:45:00,29.0,29.0,26.84,SSE,157,3.0,3.0,97,0.00,,,0.00,Rainwise IP-100,2013-02-20 12:45:00,
2013-02-20 05:50:00,29.0,29.0,26.84,SSE,157,2.0,3.0,98,0.00,,,0.00,Rainwise IP-100,2013-02-20 12:50:00,
2013-02-20 05:55:00,29.0,29.0,26.84,SSE,157,1.0,5.0,98,0.00,,,0.00,Rainwise IP-100,2013-02-20 12:55:00,
2013-02-20 06:00:00,29.0,29.0,26.84,SSE,157,3.0,4.0,100,0.00,,,0.00,Rainwise IP-100,2013-02-20 13:00:00,
2013-02-20 06:05:00,29.0,29.0,26.85,SSE,157,1.0,3.0,98,0.00,,,0.00,Rainwise IP-100,2013-02-20 13:05:00,
2013-02-20 06:10:00,29.0,29.0,26.85,SSE,157,0.0,1.0,99,0.00,,,0.00,Rainwise IP-100,2013-02-20 13:10:00,
2013-02-20 06:15:00,29.0,29.0,26.85,SSE,157,0.0,0.0,98,0.00,,,0.00,Rainwise IP-100,2013-02-20 13:15:00,
2013-02-20 06:20:00,28.0,28.0,26.85,SSE,157,0.0,0.0,98,0.00,,,0.00,Rainwise IP-100,2013-02-20 13:20:00,
2013-02-20 06:25:00,28.0,28.0,26.85,SSE,157,0.0,0.0,97,0.00,,,0.00,Rainwise IP-100,2013-02-20 13:25:00,
2013-02-20 06:30:00,28.0,28.0,26.85,SSE,157,0.0,0.0,98,0.00,,,0.00,Rainwise IP-100,2013-02-20 13:30:00,
2013-02-20 06:35:00,28.0,28.0,26.85,SSE,157,0.0,0.0,98,0.00,,,0.00,Rainwise IP-100,2013-02-20 13:35:00,
2013-02-20 06:40:00,27.0,28.0,26.85,SSE,157,0.0,0.0,98,0.00,,,0.00,Rainwise IP-100,2013-02-20 13:40:00,
2013-02-20 06:45:00,28.0,28.0,26.86,SSE,157,0.0,0.0,98,0.00,,,0.00,Rainwise IP-100,2013-02-20 13:45:00,
2013-02-20 06:50:00,27.0,28.0,26.86,SSE,157,0.0,0.0,98,0.00,,,0.00,Rainwise IP-100,2013-02-20 13:50:00,
2013-02-20 06:55:00,28.0,28.0,26.86,SSE,157,0.0,0.0,98,0.00,,,0.00,Rainwise IP-100,2013-02-20 13:55:00,
2013-02-20 07:00:00,27.0,28.0,26.86,SSE,157,0.0,0.0,98,0.00,,,0.00,Rainwise IP-100,2013-02-20 14:00:00,
2013-02-20 07:05:00,27.0,28.0,26.87,SSE,157,0.0,0.0,98,0.00,,,0.00,Rainwise IP-100,2013-02-20 14:05:00,
2013-02-20 07:10:00,27.0,28.0,26.87,WSW,247,2.0,0.0,100,0.00,,,0.00,Rainwise IP-100,2013-02-20 14:10:00,
2013-02-20 07:15:00,27.0,28.0,26.87,WSW,247,0.0,3.0,100,0.00,,,0.00,Rainwise IP-100,2013-02-20 14:15:00,
2013-02-20 07:20:00,27.0,28.0,26.87,WSW,247,0.0,1.0,100,0.00,,,0.00,Rainwise IP-100,2013-02-20 14:20:00,
2013-02-20 07:25:00,27.0,28.0,26.87,WSW,247,2.0,4.0,100,0.00,,,0.00,Rainwise IP-100,2013-02-20 14:25:00,
2013-02-20 07:30:00,27.0,28.0,26.87,WSW,247,1.0,3.0,100,0.00,,,0.00,Rainwise IP-100,2013-02-20 14:30:00,
2013-02-20 07:35:00,27.0,28.0,26.87,WSW,247,0.0,2.0,100,0.00,,,0.00,Rainwise IP-100,2013-02-20 14:35:00,
2013-02-20 07:40:00,27.0,28.0,26.87,WSW,247,0.0,0.0,100,0.00,,,0.00,Rainwise IP-100,2013-02-20 14:40:00,
2013-02-20 07:45:00,27.0,28.0,26.88,WSW,247,0.0,0.0,100,0.00,,,0.00,Rainwise IP-100,2013-02-20 14:45:00,
2013-02-20 07:50:00,27.0,28.0,26.88,WSW,247,0.0,0.0,100,0.00,,,0.00,Rainwise IP-100,2013-02-20 14:50:00,
2013-02-20 07:55:00,28.0,28.0,26.87,WSW,247,0.0,0.0,100,0.00,,,0.00,Rainwise IP-100,2013-02-20 14:55:00,
2013-02-20 08:00:00,27.0,28.0,26.87,WSW,247,0.0,0.0,100,0.00,,,0.00,Rainwise IP-100,2013-02-20 15:00:00,
2013-02-20 08:05:00,28.0,28.0,26.87,WSW,247,0.0,0.0,100,0.00,,,0.00,Rainwise IP-100,2013-02-20 15:05:00,
2013-02-20 08:10:00,27.0,28.0,26.87,WSW,247,0.0,0.0,100,0.00,,,0.00,Rainwise IP-100,2013-02-20 15:10:00,
2013-02-20 08:15:00,28.0,28.0,26.87,WSW,247,0.0,0.0,100,0.00,,,0.00,Rainwise IP-100,2013-02-20 15:15:00,
2013-02-20 08:20:00,27.0,28.0,26.87,WSW,247,0.0,0.0,100,0.00,,,0.00,Rainwise IP-100,2013-02-20 15:20:00,
2013-02-20 08:25:00,28.0,28.0,26.87,WSW,247,0.0,0.0,100,0.00,,,0.00,Rainwise IP-100,2013-02-20 15:25:00,
2013-02-20 08:30:00,28.0,28.0,26.87,WSW,247,0.0,0.0,100,0.00,,,0.00,Rainwise IP-100,2013-02-20 15:30:00,
2013-02-20 08:35:00,28.0,28.0,26.87,WSW,247,0.0,0.0,100,0.00,,,0.00,Rainwise IP-100,2013-02-20 15:35:00,
2013-02-20 08:40:00,28.0,28.0,26.87,WSW,247,0.0,0.0,100,0.00,,,0.00,Rainwise IP-100,2013-02-20 15:40:00,
2013-02-20 08:45:00,29.0,29.0,26.87,WSW,247,0.0,3.0,100,0.00,,,0.00,Rainwise IP-100,2013-02-20 15:45:00,
2013-02-20 08:50:00,29.0,29.0,26.87,WSW,247,0.0,1.0,100,0.00,,,0.00,Rainwise IP-100,2013-02-20 15:50:00,
2013-02-20 08:55:00,29.0,29.0,26.88,WSW,247,0.0,0.0,100,0.00,,,0.00,Rainwise IP-100,2013-02-20 15:55:00,
2013-02-20 09:00:00,30.0,31.0,26.88,WSW,247,0.0,0.0,100,0.00,,,0.00,Rainwise IP-100,2013-02-20 16:00:00,
2013-02-20 09:05:00,30.0,31.0,26.87,WSW,247,0.0,0.0,100,0.00,,,0.00,Rainwise IP-100,2013-02-20 16:05:00,
2013-02-20 09:10:00,30.0,31.0,26.87,WSW,247,0.0,0.0,100,0.00,,,0.00,Rainwise IP-100,2013-02-20 16:10:00,
2013-02-20 09:15:00,30.0,31.0,26.87,WSW,247,0.0,0.0,100,0.00,,,0.00,Rainwise IP-100,2013-02-20 16:15:00,
2013-02-20 09:20:00,30.0,31.0,26.87,WSW,247,0.0,0.0,100,0.00,,,0.00,Rainwise IP-100,2013-02-20 16:20:00,
2013-02-20 09:25:00,31.0,31.0,26.87,WSW,247,0.0,0.0,100,0.00,,,0.00,Rainwise IP-100,2013-02-20 16:25:00,
2013-02-20 09:30:00,31.0,31.0,26.87,WSW,247,0.0,0.0,100,0.00,,,0.00,Rainwise IP-100,2013-02-20 16:30:00,
2013-02-20 09:35:00,31.0,31.0,26.87,WSW,247,0.0,0.0,100,0.00,,,0.00,Rainwise IP-100,2013-02-20 16:35:00,
2013-02-20 09:40:00,31.0,31.0,26.87,WSW,247,0.0,0.0,100,0.00,,,0.00,Rainwise IP-100,2013-02-20 16:40:00,
2013-02-20 09:45:00,32.0,32.0,26.87,WSW,247,0.0,1.0,99,0.00,,,0.00,Rainwise IP-100,2013-02-20 16:45:00,
2013-02-20 09:50:00,32.0,32.0,26.87,WSW,247,0.0,0.0,100,0.00,,,0.00,Rainwise IP-100,2013-02-20 16:50:00,
2013-02-20 09:55:00,32.0,32.0,26.87,WSW,247,0.0,0.0,99,0.00,,,0.00,Rainwise IP-100,2013-02-20 16:55:00,
2013-02-20 10:00:00,32.0,32.0,26.87,WSW,247,0.0,2.0,100,0.00,,,0.00,Rainwise IP-100,2013-02-20 17:00:00,
2013-02-20 10:05:00,33.0,33.0,26.86,WSW,247,0.0,1.0,99,0.00,,,0.00,Rainwise IP-100,2013-02-20 17:05:00,
2013-02-20 10:10:00,33.0,33.0,26.86,WSW,247,0.0,0.0,99,0.00,,,0.00,Rainwise IP-100,2013-02-20 17:10:00,
2013-02-20 10:15:00,33.0,32.0,26.86,WSW,247,0.0,0.0,97,0.00,,,0.00,Rainwise IP-100,2013-02-20 17:15:00,
2013-02-20 10:20:00,33.0,32.0,26.86,SSW,202,0.0,3.0,97,0.06,,,0.01,Rainwise IP-100,2013-02-20 17:20:00,
2013-02-20 10:25:00,33.0,31.0,26.86,South,180,2.0,2.0,92,0.06,,,0.01,Rainwise IP-100,2013-02-20 17:25:00,
2013-02-20 10:30:00,32.0,31.0,26.86,South,180,3.0,5.0,93,0.00,,,0.01,Rainwise IP-100,2013-02-20 17:30:00,
2013-02-20 10:35:00,33.0,32.0,26.86,South,180,0.0,3.0,93,0.06,,,0.02,Rainwise IP-100,2013-02-20 17:35:00,
2013-02-20 10:40:00,32.0,31.0,26.86,SSW,202,4.0,5.0,94,0.06,,,0.02,Rainwise IP-100,2013-02-20 17:40:00,
2013-02-20 10:45:00,33.0,31.0,26.86,SW,225,1.0,5.0,92,0.00,,,0.02,Rainwise IP-100,2013-02-20 17:45:00,
2013-02-20 10:50:00,32.0,31.0,26.86,SE,135,5.0,5.0,92,0.00,,,0.02,Rainwise IP-100,2013-02-20 17:50:00,
2013-02-20 10:55:00,33.0,31.0,26.86,SSW,202,3.0,5.0,91,0.00,,,0.02,Rainwise IP-100,2013-02-20 17:55:00,
2013-02-20 11:00:00,33.0,31.0,26.86,SSW,202,0.0,4.0,91,0.00,,,0.02,Rainwise IP-100,2013-02-20 18:00:00,
2013-02-20 11:05:00,33.0,31.0,26.86,SSE,157,1.0,4.0,87,0.00,,,0.02,Rainwise IP-100,2013-02-20 18:05:00,
2013-02-20 11:10:00,33.0,31.0,26.86,SSE,157,0.0,3.0,88,0.00,,,0.02,Rainwise IP-100,2013-02-20 18:10:00,
2013-02-20 11:15:00,34.0,31.0,26.85,SSE,157,0.0,4.0,87,0.00,,,0.02,Rainwise IP-100,2013-02-20 18:15:00,
2013-02-20 11:20:00,34.0,31.0,26.85,SSE,157,3.0,5.0,84,0.00,,,0.02,Rainwise IP-100,2013-02-20 18:20:00,
2013-02-20 11:25:00,34.0,31.0,26.85,SSW,202,0.0,5.0,84,0.00,,,0.02,Rainwise IP-100,2013-02-20 18:25:00,
2013-02-20 11:30:00,34.0,31.0,26.85,NW,315,2.0,2.0,83,0.00,,,0.02,Rainwise IP-100,2013-02-20 18:30:00,
2013-02-20 11:35:00,35.0,29.0,26.84,North,360,2.0,4.0,79,0.00,,,0.02,Rainwise IP-100,2013-02-20 18:35:00,
2013-02-20 11:40:00,35.0,28.0,26.84,East,90,0.0,4.0,77,0.00,,,0.02,Rainwise IP-100,2013-02-20 18:40:00,
2013-02-20 11:45:00,36.0,29.0,26.84,NE,45,0.0,3.0,76,0.00,,,0.02,Rainwise IP-100,2013-02-20 18:45:00,
2013-02-20 11:50:00,36.0,29.0,26.84,NE,45,4.0,5.0,74,0.00,,,0.02,Rainwise IP-100,2013-02-20 18:50:00,
2013-02-20 11:55:00,36.0,29.0,26.84,NE,45,2.0,5.0,74,0.00,,,0.02,Rainwise IP-100,2013-02-20 18:55:00,
2013-02-20 12:00:00,38.0,28.0,26.83,East,90,2.0,4.0,66,0.00,,,0.02,Rainwise IP-100,2013-02-20 19:00:00,
2013-02-20 12:05:00,38.0,28.0,26.83,WNW,292,0.0,4.0,64,0.00,,,0.02,Rainwise IP-100,2013-02-20 19:05:00,
2013-02-20 12:10:00,38.0,28.0,26.83,NNW,337,2.0,3.0,65,0.00,,,0.02,Rainwise IP-100,2013-02-20 19:10:00,
2013-02-20 12:15:00,39.0,26.0,26.82,WSW,247,2.0,6.0,60,0.00,,,0.02,Rainwise IP-100,2013-02-20 19:15:00,
2013-02-20 12:20:00,38.0,26.0,26.82,NW,315,0.0,7.0,61,0.00,,,0.02,Rainwise IP-100,2013-02-20 19:20:00,
2013-02-20 12:25:00,39.0,26.0,26.81,WNW,292,2.0,6.0,58,0.00,,,0.02,Rainwise IP-100,2013-02-20 19:25:00,
2013-02-20 12:30:00,38.0,24.0,26.81,North,360,1.0,7.0,58,0.00,,,0.02,Rainwise IP-100,2013-02-20 19:30:00,
2013-02-20 12:35:00,38.0,26.0,26.82,NNE,22,4.0,6.0,60,0.00,,,0.02,Rainwise IP-100,2013-02-20 19:35:00,
2013-02-20 12:40:00,38.0,26.0,26.82,NW,315,7.0,8.0,59,0.00,,,0.02,Rainwise IP-100,2013-02-20 19:40:00,
2013-02-20 12:45:00,38.0,24.0,26.81,NNW,337,6.0,8.0,56,0.00,,,0.02,Rainwise IP-100,2013-02-20 19:45:00,
2013-02-20 12:50:00,38.0,24.0,26.81,North,360,6.0,9.0,58,0.00,,,0.02,Rainwise IP-100,2013-02-20 19:50:00,
2013-02-20 12:55:00,39.0,26.0,26.81,West,270,5.0,7.0,57,0.00,,,0.02,Rainwise IP-100,2013-02-20 19:55:00,
2013-02-20 13:00:00,38.0,24.0,26.81,North,360,6.0,8.0,57,0.00,,,0.02,Rainwise IP-100,2013-02-20 20:00:00,
2013-02-20 13:05:00,38.0,26.0,26.81,North,360,3.0,10.0,59,0.00,,,0.02,Rainwise IP-100,2013-02-20 20:05:00,
2013-02-20 13:10:00,38.0,23.0,26.81,NW,315,5.0,9.0,54,0.00,,,0.02,Rainwise IP-100,2013-02-20 20:10:00,
2013-02-20 13:15:00,38.0,23.0,26.81,WNW,292,4.0,9.0,53,0.00,,,0.02,Rainwise IP-100,2013-02-20 20:15:00,
2013-02-20 13:20:00,38.0,23.0,26.81,NNW,337,0.0,9.0,54,0.00,,,0.02,Rainwise IP-100,2013-02-20 20:20:00,
2013-02-20 13:25:00,38.0,21.0,26.81,North,360,2.0,8.0,49,0.00,,,0.02,Rainwise IP-100,2013-02-20 20:25:00,
2013-02-20 13:30:00,38.0,23.0,26.81,NNW,337,6.0,7.0,52,0.00,,,0.02,Rainwise IP-100,2013-02-20 20:30:00,
2013-02-20 13:35:00,38.0,21.0,26.81,NW,315,8.0,13.0,49,0.00,,,0.02,Rainwise IP-100,2013-02-20 20:35:00,
2013-02-20 13:40:00,38.0,21.0,26.81,NNW,337,7.0,12.0,49,0.00,,,0.02,Rainwise IP-100,2013-02-20 20:40:00,
2013-02-20 13:45:00,38.0,21.0,26.81,North,360,6.0,10.0,49,0.00,,,0.02,Rainwise IP-100,2013-02-20 20:45:00,
2013-02-20 13:50:00,38.0,23.0,26.81,NW,315,3.0,12.0,50,0.00,,,0.02,Rainwise IP-100,2013-02-20 20:50:00,
2013-02-20 13:55:00,38.0,21.0,26.81,West,270,7.0,12.0,49,0.00,,,0.02,Rainwise IP-100,2013-02-20 20:55:00,
2013-02-20 14:00:00,38.0,23.0,26.81,WNW,292,6.0,10.0,52,0.00,,,0.02,Rainwise IP-100,2013-02-20 21:00:00,
2013-02-20 14:05:00,38.0,23.0,26.81,WNW,292,4.0,11.0,50,0.00,,,0.02,Rainwise IP-100,2013-02-20 21:05:00,
2013-02-20 14:10:00,38.0,23.0,26.81,NW,315,5.0,10.0,50,0.00,,,0.02,Rainwise IP-100,2013-02-20 21:10:00,
2013-02-20 14:15:00,38.0,21.0,26.80,NNW,337,8.0,10.0,49,0.00,,,0.02,Rainwise IP-100,2013-02-20 21:15:00,
2013-02-20 14:20:00,38.0,23.0,26.80,WNW,292,7.0,12.0,51,0.00,,,0.02,Rainwise IP-100,2013-02-20 21:20:00,
2013-02-20 14:25:00,38.0,23.0,26.81,WNW,292,8.0,13.0,51,0.00,,,0.02,Rainwise IP-100,2013-02-20 21:25:00,
2013-02-20 14:30:00,37.0,23.0,26.81,West,270,4.0,12.0,54,0.00,,,0.02,Rainwise IP-100,2013-02-20 21:30:00,
2013-02-20 14:35:00,38.0,23.0,26.81,NW,315,8.0,9.0,51,0.00,,,0.02,Rainwise IP-100,2013-02-20 21:35:00,
2013-02-20 14:40:00,37.0,23.0,26.81,NW,315,9.0,13.0,55,0.00,,,0.02,Rainwise IP-100,2013-02-20 21:40:00,
2013-02-20 14:45:00,37.0,23.0,26.81,NW,315,1.0,12.0,56,0.00,,,0.02,Rainwise IP-100,2013-02-20 21:45:00,
2013-02-20 14:50:00,37.0,23.0,26.81,ENE,67,3.0,10.0,54,0.00,,,0.02,Rainwise IP-100,2013-02-20 21:50:00,
2013-02-20 14:55:00,37.0,21.0,26.81,NNE,22,3.0,9.0,52,0.00,,,0.02,Rainwise IP-100,2013-02-20 21:55:00,
2013-02-20 15:00:00,37.0,21.0,26.81,NNE,22,4.0,8.0,52,0.00,,,0.02,Rainwise IP-100,2013-02-20 22:00:00,
2013-02-20 15:05:00,37.0,23.0,26.82,NNW,337,7.0,10.0,53,0.00,,,0.02,Rainwise IP-100,2013-02-20 22:05:00,
2013-02-20 15:10:00,37.0,23.0,26.82,WNW,292,4.0,13.0,53,0.00,,,0.02,Rainwise IP-100,2013-02-20 22:10:00,
2013-02-20 15:15:00,37.0,23.0,26.81,NW,315,5.0,16.0,54,0.00,,,0.02,Rainwise IP-100,2013-02-20 22:15:00,
2013-02-20 15:20:00,37.0,21.0,26.81,North,360,7.0,13.0,52,0.00,,,0.02,Rainwise IP-100,2013-02-20 22:20:00,
2013-02-20 15:25:00,37.0,23.0,26.81,North,360,8.0,16.0,53,0.00,,,0.02,Rainwise IP-100,2013-02-20 22:25:00,
2013-02-20 15:30:00,37.0,23.0,26.81,NW,315,4.0,14.0,55,0.00,,,0.02,Rainwise IP-100,2013-02-20 22:30:00,
2013-02-20 15:35:00,37.0,23.0,26.81,NW,315,6.0,12.0,54,0.00,,,0.02,Rainwise IP-100,2013-02-20 22:35:00,
2013-02-20 15:40:00,37.0,21.0,26.81,WNW,292,4.0,14.0,52,0.00,,,0.02,Rainwise IP-100,2013-02-20 22:40:00,
2013-02-20 15:45:00,38.0,23.0,26.80,NNW,337,12.0,12.0,50,0.00,,,0.02,Rainwise IP-100,2013-02-20 22:45:00,
2013-02-20 15:50:00,38.0,21.0,26.80,NW,315,7.0,13.0,47,0.00,,,0.02,Rainwise IP-100,2013-02-20 22:50:00,
2013-02-20 15:55:00,38.0,21.0,26.81,WNW,292,6.0,13.0,49,0.00,,,0.02,Rainwise IP-100,2013-02-20 22:55:00,
2013-02-20 16:00:00,37.0,21.0,26.81,North,360,6.0,13.0,51,0.00,,,0.02,Rainwise IP-100,2013-02-20 23:00:00,
2013-02-20 16:05:00,37.0,23.0,26.81,West,270,5.0,12.0,54,0.00,,,0.02,Rainwise IP-100,2013-02-20 23:05:00,
2013-02-20 16:10:00,37.0,23.0,26.81,NW,315,3.0,12.0,53,0.00,,,0.02,Rainwise IP-100,2013-02-20 23:10:00,
2013-02-20 16:15:00,37.0,23.0,26.82,NW,315,5.0,12.0,54,0.00,,,0.02,Rainwise IP-100,2013-02-20 23:15:00,
2013-02-20 16:20:00,37.0,21.0,26.82,NNW,337,9.0,11.0,52,0.00,,,0.02,Rainwise IP-100,2013-02-20 23:20:00,
2013-02-20 16:25:00,37.0,21.0,26.82,NW,315,4.0,13.0,51,0.00,,,0.02,Rainwise IP-100,2013-02-20 23:25:00,
2013-02-20 16:30:00,37.0,21.0,26.82,West,270,4.0,10.0,52,0.00,,,0.02,Rainwise IP-100,2013-02-20 23:30:00,
2013-02-20 16:35:00,37.0,21.0,26.82,West,270,7.0,10.0,50,0.00,,,0.02,Rainwise IP-100,2013-02-20 23:35:00,
2013-02-20 16:40:00,36.0,18.0,26.82,West,270,7.0,12.0,49,0.00,,,0.02,Rainwise IP-100,2013-02-20 23:40:00,
2013-02-20 16:45:00,37.0,21.0,26.82,WNW,292,4.0,9.0,50,0.00,,,0.02,Rainwise IP-100,2013-02-20 23:45:00,
2013-02-20 16:50:00,36.0,23.0,26.82,West,270,3.0,9.0,56,0.00,,,0.02,Rainwise IP-100,2013-02-20 23:50:00,
2013-02-20 16:55:00,36.0,23.0,26.83,West,270,6.0,8.0,56,0.00,,,0.02,Rainwise IP-100,2013-02-20 23:55:00,
2013-02-20 17:00:00,36.0,21.0,26.83,WNW,292,6.0,7.0,54,0.00,,,0.02,Rainwise IP-100,2013-02-21 00:00:00,
2013-02-20 17:05:00,36.0,23.0,26.83,West,270,5.0,9.0,55,0.00,,,0.02,Rainwise IP-100,2013-02-21 00:05:00,
2013-02-20 17:10:00,36.0,23.0,26.83,WNW,292,2.0,7.0,56,0.00,,,0.02,Rainwise IP-100,2013-02-21 00:10:00,
2013-02-20 17:15:00,36.0,23.0,26.83,WNW,292,4.0,5.0,56,0.00,,,0.02,Rainwise IP-100,2013-02-21 00:15:00,
2013-02-20 17:20:00,36.0,23.0,26.83,West,270,5.0,7.0,57,0.00,,,0.02,Rainwise IP-100,2013-02-21 00:20:00,
2013-02-20 17:25:00,36.0,23.0,26.83,WNW,292,2.0,8.0,57,0.00,,,0.02,Rainwise IP-100,2013-02-21 00:25:00,
2013-02-20 17:30:00,36.0,23.0,26.83,NW,315,5.0,9.0,58,0.00,,,0.02,Rainwise IP-100,2013-02-21 00:30:00,
2013-02-20 17:35:00,36.0,23.0,26.83,WNW,292,5.0,6.0,56,0.00,,,0.02,Rainwise IP-100,2013-02-21 00:35:00,
2013-02-20 17:40:00,35.0,21.0,26.83,NW,315,6.0,7.0,56,0.00,,,0.02,Rainwise IP-100,2013-02-21 00:40:00,
2013-02-20 17:45:00,35.0,21.0,26.84,West,270,4.0,9.0,56,0.00,,,0.02,Rainwise IP-100,2013-02-21 00:45:00,
2013-02-20 17:50:00,35.0,21.0,26.84,West,270,6.0,7.0,55,0.00,,,0.02,Rainwise IP-100,2013-02-21 00:50:00,
2013-02-20 17:55:00,35.0,21.0,26.84,WNW,292,3.0,9.0,56,0.00,,,0.02,Rainwise IP-100,2013-02-21 00:55:00,
2013-02-20 18:00:00,35.0,21.0,26.84,West,270,7.0,8.0,57,0.00,,,0.02,Rainwise IP-100,2013-02-21 01:00:00,
2013-02-20 18:05:00,35.0,21.0,26.84,West,270,3.0,8.0,57,0.00,,,0.02,Rainwise IP-100,2013-02-21 01:05:00,
2013-02-20 18:10:00,34.0,23.0,26.84,West,270,1.0,6.0,58,0.00,,,0.02,Rainwise IP-100,2013-02-21 01:10:00,
2013-02-20 18:15:00,34.0,23.0,26.85,WNW,292,5.0,6.0,58,0.00,,,0.02,Rainwise IP-100,2013-02-21 01:15:00,
2013-02-20 18:20:00,34.0,23.0,26.85,WNW,292,1.0,7.0,58,0.00,,,0.02,Rainwise IP-100,2013-02-21 01:20:00,
2013-02-20 18:25:00,34.0,23.0,26.85,WNW,292,4.0,6.0,58,0.00,,,0.02,Rainwise IP-100,2013-02-21 01:25:00,
2013-02-20 18:30:00,33.0,23.0,26.85,NNW,337,8.0,9.0,61,0.00,,,0.02,Rainwise IP-100,2013-02-21 01:30:00,
2013-02-20 18:35:00,33.0,21.0,26.86,NNW,337,4.0,9.0,60,0.00,,,0.02,Rainwise IP-100,2013-02-21 01:35:00,
2013-02-20 18:40:00,33.0,23.0,26.86,NNW,337,4.0,9.0,61,0.00,,,0.02,Rainwise IP-100,2013-02-21 01:40:00,
2013-02-20 18:45:00,33.0,23.0,26.86,NW,315,6.0,9.0,62,0.00,,,0.02,Rainwise IP-100,2013-02-21 01:45:00,
2013-02-20 18:50:00,33.0,23.0,26.86,North,360,3.0,7.0,63,0.00,,,0.02,Rainwise IP-100,2013-02-21 01:50:00,
2013-02-20 18:55:00,33.0,23.0,26.87,NNW,337,0.0,6.0,64,0.00,,,0.02,Rainwise IP-100,2013-02-21 01:55:00,
2013-02-20 19:00:00,32.0,23.0,26.87,NNW,337,2.0,6.0,64,0.00,,,0.02,Rainwise IP-100,2013-02-21 02:00:00,
2013-02-20 19:05:00,32.0,23.0,26.88,North,360,0.0,5.0,64,0.00,,,0.02,Rainwise IP-100,2013-02-21 02:05:00,
2013-02-20 19:10:00,32.0,23.0,26.88,NW,315,0.0,4.0,65,0.00,,,0.02,Rainwise IP-100,2013-02-21 02:10:00,
2013-02-20 19:15:00,32.0,23.0,26.88,NW,315,1.0,3.0,64,0.00,,,0.02,Rainwise IP-100,2013-02-21 02:15:00,
2013-02-20 19:20:00,32.0,23.0,26.88,WNW,292,1.0,2.0,65,0.00,,,0.02,Rainwise IP-100,2013-02-21 02:20:00,
2013-02-20 19:25:00,32.0,23.0,26.88,WNW,292,0.0,2.0,65,0.00,,,0.02,Rainwise IP-100,2013-02-21 02:25:00,
2013-02-20 19:30:00,32.0,23.0,26.88,WSW,247,0.0,3.0,65,0.00,,,0.02,Rainwise IP-100,2013-02-21 02:30:00,
2013-02-20 19:35:00,32.0,21.0,26.89,WSW,247,2.0,5.0,63,0.00,,,0.02,Rainwise IP-100,2013-02-21 02:35:00,
2013-02-20 19:40:00,32.0,21.0,26.89,WSW,247,0.0,5.0,63,0.00,,,0.02,Rainwise IP-100,2013-02-21 02:40:00,
2013-02-20 19:45:00,32.0,21.0,26.89,West,270,0.0,4.0,62,0.00,,,0.02,Rainwise IP-100,2013-02-21 02:45:00,
2013-02-20 19:50:00,32.0,21.0,26.89,West,270,0.0,7.0,60,0.00,,,0.02,Rainwise IP-100,2013-02-21 02:50:00,
2013-02-20 19:55:00,32.0,21.0,26.89,West,270,0.0,1.0,60,0.00,,,0.02,Rainwise IP-100,2013-02-21 02:55:00,
2013-02-20 20:00:00,32.0,21.0,26.89,West,270,0.0,2.0,61,0.00,,,0.02,Rainwise IP-100,2013-02-21 03:00:00,
2013-02-20 20:05:00,32.0,21.0,26.89,West,270,0.0,2.0,61,0.00,,,0.02,Rainwise IP-100,2013-02-21 03:05:00,
2013-02-20 20:10:00,32.0,21.0,26.89,West,270,0.0,0.0,63,0.00,,,0.02,Rainwise IP-100,2013-02-21 03:10:00,
2013-02-20 20:15:00,32.0,21.0,26.89,West,270,0.0,0.0,63,0.00,,,0.02,Rainwise IP-100,2013-02-21 03:15:00,
2013-02-20 20:20:00,32.0,21.0,26.89,SE,135,4.0,6.0,62,0.00,,,0.02,Rainwise IP-100,2013-02-21 03:20:00,
2013-02-20 20:25:00,32.0,21.0,26.89,SE,135,2.0,5.0,62,0.00,,,0.02,Rainwise IP-100,2013-02-21 03:25:00,
2013-02-20 20:30:00,32.0,21.0,26.89,SSE,157,0.0,4.0,63,0.00,,,0.02,Rainwise IP-100,2013-02-21 03:30:00,
2013-02-20 20:35:00,32.0,23.0,26.89,SSE,157,0.0,1.0,64,0.00,,,0.02,Rainwise IP-100,2013-02-21 03:35:00,
2013-02-20 20:40:00,32.0,23.0,26.89,WSW,247,2.0,3.0,66,0.00,,,0.02,Rainwise IP-100,2013-02-21 03:40:00,
2013-02-20 20:45:00,32.0,21.0,26.89,South,180,0.0,6.0,63,0.00,,,0.02,Rainwise IP-100,2013-02-21 03:45:00,
2013-02-20 20:50:00,32.0,21.0,26.89,West,270,0.0,6.0,60,0.00,,,0.02,Rainwise IP-100,2013-02-21 03:50:00,
2013-02-20 20:55:00,33.0,21.0,26.88,West,270,0.0,8.0,57,0.00,,,0.02,Rainwise IP-100,2013-02-21 03:55:00,
2013-02-20 21:00:00,33.0,18.0,26.88,WNW,292,6.0,9.0,55,0.00,,,0.02,Rainwise IP-100,2013-02-21 04:00:00,
2013-02-20 21:05:00,33.0,18.0,26.89,WNW,292,6.0,9.0,54,0.00,,,0.02,Rainwise IP-100,2013-02-21 04:05:00,
2013-02-20 21:10:00,33.0,18.0,26.89,WSW,247,1.0,6.0,54,0.00,,,0.02,Rainwise IP-100,2013-02-21 04:10:00,
2013-02-20 21:15:00,33.0,18.0,26.89,West,270,6.0,8.0,54,0.00,,,0.02,Rainwise IP-100,2013-02-21 04:15:00,
2013-02-20 21:20:00,33.0,18.0,26.89,West,270,4.0,10.0,54,0.00,,,0.02,Rainwise IP-100,2013-02-21 04:20:00,
2013-02-20 21:25:00,33.0,18.0,26.89,West,270,2.0,6.0,54,0.00,,,0.02,Rainwise IP-100,2013-02-21 04:25:00,
2013-02-20 21:30:00,33.0,18.0,26.89,West,270,4.0,7.0,55,0.00,,,0.02,Rainwise IP-100,2013-02-21 04:30:00,
2013-02-20 21:35:00,33.0,18.0,26.89,West,270,6.0,7.0,54,0.00,,,0.02,Rainwise IP-100,2013-02-21 04:35:00,
2013-02-20 21:40:00,33.0,18.0,26.89,West,270,6.0,10.0,54,0.00,,,0.02,Rainwise IP-100,2013-02-21 04:40:00,
2013-02-20 21:45:00,33.0,18.0,26.89,West,270,0.0,7.0,55,0.00,,,0.02,Rainwise IP-100,2013-02-21 04:45:00,
2013-02-20 21:50:00,33.0,21.0,26.89,WNW,292,5.0,6.0,56,0.00,,,0.02,Rainwise IP-100,2013-02-21 04:50:00,
2013-02-20 21:55:00,33.0,21.0,26.90,West,270,2.0,7.0,56,0.00,,,0.02,Rainwise IP-100,2013-02-21 04:55:00,
2013-02-20 22:00:00,33.0,18.0,26.90,WNW,292,4.0,7.0,55,0.00,,,0.02,Rainwise IP-100,2013-02-21 05:00:00,
2013-02-20 22:05:00,33.0,21.0,26.90,NNW,337,5.0,8.0,56,0.00,,,0.02,Rainwise IP-100,2013-02-21 05:05:00,
2013-02-20 22:10:00,32.0,21.0,26.90,NNW,337,0.0,5.0,60,0.00,,,0.02,Rainwise IP-100,2013-02-21 05:10:00,
2013-02-20 22:15:00,32.0,21.0,26.90,NNW,337,4.0,5.0,61,0.00,,,0.02,Rainwise IP-100,2013-02-21 05:15:00,
2013-02-20 22:20:00,32.0,23.0,26.91,NNW,337,3.0,7.0,64,0.00,,,0.02,Rainwise IP-100,2013-02-21 05:20:00,
2013-02-20 22:25:00,32.0,23.0,26.91,NW,315,3.0,9.0,67,0.00,,,0.02,Rainwise IP-100,2013-02-21 05:25:00,
2013-02-20 22:30:00,31.0,23.0,26.91,NNW,337,4.0,7.0,68,0.00,,,0.02,Rainwise IP-100,2013-02-21 05:30:00,
2013-02-20 22:35:00,31.0,23.0,26.91,NW,315,5.0,8.0,70,0.00,,,0.02,Rainwise IP-100,2013-02-21 05:35:00,
2013-02-20 22:40:00,31.0,23.0,26.92,NW,315,2.0,7.0,70,0.00,,,0.02,Rainwise IP-100,2013-02-21 05:40:00,
2013-02-20 22:45:00,31.0,23.0,26.92,WNW,292,1.0,3.0,71,0.00,,,0.02,Rainwise IP-100,2013-02-21 05:45:00,
2013-02-20 22:50:00,30.0,23.0,26.92,West,270,0.0,4.0,72,0.00,,,0.02,Rainwise IP-100,2013-02-21 05:50:00,
2013-02-20 22:55:00,30.0,23.0,26.92,West,270,1.0,3.0,72,0.00,,,0.02,Rainwise IP-100,2013-02-21 05:55:00,
2013-02-20 22:57:00,30.0,23.0,26.93,West,270,0.0,2.0,72,0.00,,,0.02,Rainwise IP-100,2013-02-21 05:57:00,
2013-02-20 22:59:00,30.0,23.0,26.93,West,270,0.0,2.0,72,0.00,,,0.02,Rainwise IP-100,2013-02-21 05:59:00,
2013-02-20 23:04:00,30.0,23.0,26.93,West,270,0.0,0.0,73,0.00,,,0.02,Rainwise IP-100,2013-02-21 06:04:00,
2013-02-20 23:09:00,29.0,23.0,26.93,West,270,0.0,0.0,74,0.00,,,0.02,Rainwise IP-100,2013-02-21 06:09:00,
2013-02-20 23:14:00,29.0,23.0,26.93,West,270,0.0,0.0,75,0.00,,,0.02,Rainwise IP-100,2013-02-21 06:14:00,
2013-02-20 23:19:00,29.0,23.0,26.93,West,270,0.0,0.0,77,0.00,,,0.02,Rainwise IP-100,2013-02-21 06:19:00,
2013-02-20 23:24:00,28.0,23.0,26.93,West,270,0.0,0.0,77,0.00,,,0.02,Rainwise IP-100,2013-02-21 06:24:00,
2013-02-20 23:29:00,28.0,23.0,26.94,West,270,0.0,0.0,78,0.00,,,0.02,Rainwise IP-100,2013-02-21 06:29:00,
2013-02-20 23:34:00,28.0,23.0,26.94,West,270,0.0,0.0,78,0.00,,,0.02,Rainwise IP-100,2013-02-21 06:34:00,
2013-02-20 23:39:00,28.0,23.0,26.94,West,270,0.0,1.0,80,0.00,,,0.02,Rainwise IP-100,2013-02-21 06:39:00,
2013-02-20 23:44:00,28.0,23.0,26.94,West,270,0.0,0.0,80,0.00,,,0.02,Rainwise IP-100,2013-02-21 06:44:00,
2013-02-20 23:49:00,28.0,23.0,26.94,NW,315,2.0,2.0,80,0.00,,,0.02,Rainwise IP-100,2013-02-21 06:49:00,
2013-02-20 23:54:00,28.0,23.0,26.94,NNW,337,2.0,3.0,79,0.00,,,0.02,Rainwise IP-100,2013-02-21 06:54:00,
2013-02-20 23:59:00,28.0,23.0,26.94,NNW,337,2.0,3.0,78,0.00,,,0.02,Rainwise IP-100,2013-02-21 06:59:00,